Bedford, MA

2:20 AM EDT on May 27, 2017 (GMT -0400)
Hanscom

Weather History for KBED - October, 2011

Change the Weather History Date:

Tuesday, October 11, 2011

  Actual Average Record
Temperature  
Mean Temperature 56 °F -  
Max Temperature 68 °F 61 °F 80 °F (1958)
Min Temperature 46 °F 38 °F 22 °F (1993)
Degree Days  
Heating Degree Days 9    
Growing Degree Days 6 (Base 50)    
Moisture  
Dew Point 49 °F    
Average Humidity 89    
Maximum Humidity 100    
Minimum Humidity 42    
Precipitation  
Precipitation 0.00 in - - ()
Sea Level Pressure  
Sea Level Pressure 30.22 in    
Wind  
Wind Speed 1 mph (East)    
Max Wind Speed 12 mph    
Max Gust Speed -    
Visibility 6 miles    
Events Fog    
Averages and records for this station are not official NWS values.
T = Trace of Precipitation, MM = Missing Value Source: NWS Daily Summary

Daily Weather History Graph

Daily Weather History Graph

Search for Another Location

Airport or City:

Trip Planner

Search our weather history database for the weather conditions in past years. The results will help you decide how hot, cold, wet, or windy it might be!

Date:

Astronomy

Oct. 11, 2011 Rise Set
Actual Time 6:53 AM EDT 6:10 PM EDT
Civil Twilight 6:24 AM EDT 6:38 PM EDT
Nautical Twilight 5:52 AM EDT 7:10 PM EDT
Astronomical Twilight 5:19 AM EDT 7:43 PM EDT
Moon 5:39 PM EDT (10/11) 6:28 AM EDT (10/11)
Length of Visible Light 12h 13m
Length of Day
11h 16m
Full, 100% of the Moon is Illuminated
Oct 11
Full
Oct 11
Full
Oct 19
Last Quarter
Oct 26
New
Nov 2
First Quarter

Hourly Weather History & Observations

Time (EDT) Temp. Dew Point Humidity Pressure Visibility Wind Dir Wind Speed Gust Speed Precip Events Conditions
12:56 AM 54.0 °F 53.1 °F 97% 30.20 in 10.0 mi Calm Calm - N/A   Clear
1:56 AM 53.1 °F 53.1 °F 100% 30.20 in 6.0 mi Calm Calm - N/A   Clear
2:17 AM 53.6 °F 51.8 °F 94% 30.17 in 1.5 mi Calm Calm - N/A   Clear
2:23 AM 53.6 °F 53.6 °F 100% 30.17 in 0.2 mi Calm Calm - N/A Fog Fog
2:43 AM 51.8 °F 51.8 °F 100% 30.17 in 1.0 mi Calm Calm - N/A   Clear
2:46 AM 51.8 °F 51.8 °F 100% 30.17 in 3.0 mi Calm Calm - N/A   Clear
2:54 AM 51.8 °F 51.8 °F 100% 30.17 in 1.8 mi Calm Calm - N/A   Clear
2:56 AM 51.8 °F 51.8 °F 100% 30.18 in 1.8 mi Calm Calm - N/A   Clear
3:04 AM 51.8 °F 51.8 °F 100% 30.18 in 4.0 mi Calm Calm - N/A   Clear
3:37 AM 51.8 °F 51.8 °F 100% 30.18 in 2.0 mi Calm Calm - N/A   Clear
3:47 AM 51.8 °F 51.8 °F 100% 30.18 in 6.0 mi Calm Calm - N/A   Clear
3:56 AM 48.9 °F 48.9 °F 100% 30.22 in 5.0 mi Calm Calm - N/A   Clear
4:34 AM 51.8 °F 50.0 °F 94% 30.19 in 1.2 mi Calm Calm - N/A   Clear
4:41 AM 50.0 °F 50.0 °F 100% 30.19 in 0.5 mi Calm Calm - N/A Fog Fog
4:48 AM 48.2 °F 48.2 °F 100% 30.19 in 2.0 mi Calm Calm - N/A   Clear
4:56 AM 48.2 °F 48.2 °F 100% 30.20 in 5.0 mi Calm Calm - N/A   Clear
5:28 AM 48.2 °F 48.2 °F 100% 30.20 in 1.2 mi Calm Calm - 0.01 in   Clear
5:33 AM 48.2 °F 48.2 °F 100% 30.20 in 0.2 mi Calm Calm - N/A Fog Fog
5:44 AM 48.2 °F 46.4 °F 93% 30.21 in 1.2 mi Calm Calm - 0.01 in   Clear
5:47 AM 46.4 °F 46.4 °F 100% 30.21 in 4.0 mi Calm Calm - 0.01 in   Clear
5:56 AM 48.2 °F 46.4 °F 93% 30.21 in 4.0 mi Calm Calm - N/A   Clear
6:05 AM 48.2 °F 48.2 °F 100% 30.21 in 1.8 mi Calm Calm - N/A   Clear
6:18 AM 46.4 °F 46.4 °F 100% 30.21 in 3.0 mi Calm Calm - N/A   Clear
6:38 AM 46.4 °F 46.4 °F 100% 30.21 in 1.5 mi Calm Calm - N/A   Clear
6:43 AM 46.4 °F 46.4 °F 100% 30.21 in 10.0 mi Calm Calm - N/A Fog Shallow Fog
6:56 AM 46.4 °F 46.4 °F 100% 30.22 in 10.0 mi Calm Calm - N/A Fog Shallow Fog
7:56 AM 50.0 °F 50.0 °F 100% 30.27 in 8.0 mi Calm Calm - N/A   Mostly Cloudy
8:56 AM 53.1 °F 51.1 °F 93% 30.29 in 10.0 mi Calm Calm - N/A   Clear
9:56 AM 59.0 °F 51.8 °F 77% 30.25 in 10.0 mi NNE 5.8 mph - N/A   Mostly Cloudy
10:56 AM 62.1 °F 48.0 °F 60% 30.28 in 10.0 mi East 5.8 mph - N/A   Mostly Cloudy
11:56 AM 64.9 °F 48.0 °F 54% 30.27 in 10.0 mi East 5.8 mph - N/A   Scattered Clouds
12:56 PM 66.0 °F 42.1 °F 42% 30.25 in 10.0 mi Calm Calm - N/A   Clear
1:56 PM 66.9 °F 48.0 °F 51% 30.23 in 10.0 mi ESE 4.6 mph - N/A   Scattered Clouds
2:56 PM 66.0 °F 48.0 °F 52% 30.24 in 10.0 mi Variable 4.6 mph - N/A   Clear
3:56 PM 64.0 °F 48.9 °F 58% 30.23 in 10.0 mi ESE 9.2 mph - N/A   Clear
4:56 PM 61.0 °F 50.0 °F 67% 30.24 in 10.0 mi East 11.5 mph - N/A   Clear
5:56 PM 57.9 °F 50.0 °F 75% 30.24 in 10.0 mi East 6.9 mph - N/A   Clear
6:56 PM 55.0 °F 50.0 °F 83% 30.25 in 10.0 mi ESE 4.6 mph - N/A   Mostly Cloudy
7:56 PM 54.0 °F 50.0 °F 86% 30.25 in 10.0 mi East 3.5 mph - N/A   Clear
8:56 PM 53.1 °F 50.0 °F 89% 30.26 in 10.0 mi ENE 3.5 mph - N/A   Clear
9:56 PM 50.0 °F 48.9 °F 96% 30.26 in 10.0 mi Calm Calm - N/A   Clear
10:56 PM 50.0 °F 48.9 °F 96% 30.27 in 10.0 mi Calm Calm - N/A   Clear
11:56 PM 50.0 °F 48.9 °F 96% 30.28 in 10.0 mi Calm Calm - N/A   Clear